SKW5240 KDEN-KEGE

Flight info

Callsign SKW5240
Flight time 0h 26m
Altitude 22000
Route ZIMMR4 ZIMMR CULCH
Aircraft E75L/M-SDE3GILORVW/S

Departure

Time 2026-05-05 02:29
Airport Denver International Airport (KDEN)

Arrival

Time 2026-05-05 02:56
Airport Eagle County Regional Airport (KEGE)
Time Latitude Longitude Altitude Speed Heading
2026-05-05 01:53 39.85950 -104.66670 5378 ft 0 kts 180°
2026-05-05 02:15 39.85960 -104.66670 5374 ft 4 kts 183°
2026-05-05 02:15 39.85981 -104.66669 5374 ft 4 kts 181°
2026-05-05 02:15 39.85987 -104.66669 5376 ft 0 kts 181°
2026-05-05 02:18 39.85985 -104.66671 5376 ft 1 kts 204°
2026-05-05 02:18 39.85984 -104.66677 5374 ft 1 kts 266°
2026-05-05 02:19 39.85998 -104.66698 5377 ft 7 kts 306°
2026-05-05 02:19 39.86008 -104.66781 5376 ft 10 kts 270°
2026-05-05 02:19 39.86008 -104.66867 5377 ft 9 kts 271°
2026-05-05 02:19 39.86009 -104.66948 5375 ft 9 kts 271°
2026-05-05 02:20 39.86009 -104.67023 5377 ft 8 kts 270°
2026-05-05 02:20 39.86009 -104.67092 5377 ft 7 kts 270°
2026-05-05 02:20 39.86010 -104.67173 5377 ft 12 kts 271°
2026-05-05 02:20 39.86012 -104.67294 5377 ft 13 kts 270°
2026-05-05 02:21 39.86012 -104.67407 5377 ft 12 kts 270°
2026-05-05 02:21 39.86013 -104.67505 5377 ft 10 kts 270°
2026-05-05 02:21 39.86013 -104.67587 5377 ft 8 kts 270°
2026-05-05 02:21 39.86014 -104.67655 5377 ft 8 kts 270°
2026-05-05 02:22 39.86014 -104.67745 5377 ft 12 kts 270°
2026-05-05 02:22 39.86015 -104.67844 5377 ft 10 kts 270°
2026-05-05 02:22 39.86015 -104.67922 5377 ft 8 kts 270°
2026-05-05 02:22 39.86016 -104.67995 5377 ft 7 kts 270°
2026-05-05 02:23 39.86016 -104.68048 5378 ft 6 kts 270°
2026-05-05 02:23 39.86017 -104.68107 5376 ft 6 kts 271°
2026-05-05 02:23 39.86017 -104.68147 5377 ft 5 kts 272°
2026-05-05 02:23 39.86029 -104.68252 5374 ft 14 kts 277°
2026-05-05 02:24 39.86017 -104.68373 5369 ft 13 kts 228°
2026-05-05 02:24 39.85936 -104.68396 5370 ft 10 kts 178°
2026-05-05 02:24 39.85875 -104.68395 5368 ft 8 kts 182°
2026-05-05 02:24 39.85816 -104.68396 5369 ft 9 kts 180°
2026-05-05 02:25 39.85750 -104.68396 5367 ft 11 kts 180°
2026-05-05 02:25 39.85667 -104.68398 5370 ft 13 kts 181°
2026-05-05 02:25 39.85580 -104.68399 5373 ft 12 kts 180°
2026-05-05 02:25 39.85493 -104.68400 5375 ft 13 kts 180°
2026-05-05 02:26 39.85398 -104.68401 5376 ft 15 kts 180°
2026-05-05 02:26 39.85297 -104.68402 5378 ft 14 kts 180°
2026-05-05 02:26 39.85215 -104.68425 5377 ft 10 kts 230°
2026-05-05 02:26 39.85206 -104.68521 5376 ft 14 kts 269°
2026-05-05 02:27 39.85203 -104.68702 5367 ft 24 kts 269°
2026-05-05 02:27 39.85201 -104.68921 5357 ft 25 kts 269°
2026-05-05 02:27 39.85196 -104.69145 5347 ft 25 kts 271°
2026-05-05 02:27 39.85201 -104.69372 5335 ft 26 kts 271°
2026-05-05 02:28 39.85202 -104.69589 5336 ft 22 kts 270°
2026-05-05 02:28 39.85256 -104.69658 5337 ft 11 kts 359°
2026-05-05 02:28 39.85517 -104.69654 5334 ft 69 kts
2026-05-05 02:28 39.86209 -104.69643 5333 ft 128 kts
2026-05-05 02:29 39.87285 -104.69638 5369 ft 178 kts
2026-05-05 02:29 39.88595 -104.69623 5996 ft 194 kts
2026-05-05 02:29 39.89906 -104.69600 7198 ft 185 kts 359°
2026-05-05 02:29 39.91229 -104.69615 7938 ft 197 kts 355°
2026-05-05 02:30 39.92558 -104.70231 8582 ft 213 kts 330°
2026-05-05 02:30 39.93720 -104.71549 9287 ft 232 kts 310°
2026-05-05 02:30 39.94561 -104.73507 9782 ft 265 kts 285°
2026-05-05 02:30 39.94699 -104.76002 10416 ft 289 kts 268°
2026-05-05 02:31 39.94495 -104.78780 10663 ft 330 kts 262°
2026-05-05 02:31 39.94058 -104.81953 10544 ft 375 kts 260°
2026-05-05 02:31 39.93722 -104.85240 11514 ft 362 kts 264°
2026-05-05 02:31 39.93419 -104.88335 12528 ft 333 kts 261°
2026-05-05 02:32 39.93147 -104.91310 13638 ft 329 kts 267°
2026-05-05 02:32 39.93229 -104.94236 14842 ft 318 kts 273°
2026-05-05 02:32 39.93326 -104.97105 15906 ft 317 kts 272°
2026-05-05 02:32 39.93407 -104.99986 16806 ft 319 kts 272°
2026-05-05 02:33 39.93483 -105.02844 17753 ft 319 kts 272°
2026-05-05 02:33 39.93555 -105.05751 18607 ft 316 kts 271°
2026-05-05 02:33 39.93625 -105.08652 19283 ft 320 kts 271°
2026-05-05 02:33 39.93692 -105.11585 19952 ft 325 kts 271°
2026-05-05 02:34 39.93760 -105.14545 20629 ft 330 kts 271°
2026-05-05 02:34 39.93825 -105.17530 21317 ft 334 kts 271°
2026-05-05 02:34 39.93893 -105.20532 22068 ft 334 kts 271°
2026-05-05 02:34 39.93975 -105.23635 22029 ft 344 kts 274°
2026-05-05 02:35 39.94225 -105.26681 21964 ft 333 kts 276°
2026-05-05 02:35 39.94478 -105.29648 21957 ft 325 kts 276°
2026-05-05 02:35 39.94718 -105.32587 21939 ft 327 kts 276°
2026-05-05 02:35 39.94959 -105.35493 21944 ft 326 kts 276°
2026-05-05 02:36 39.95200 -105.38429 21935 ft 325 kts 275°
2026-05-05 02:36 39.95430 -105.41383 21952 ft 335 kts 276°
2026-05-05 02:36 39.95674 -105.44466 22002 ft 348 kts 275°
2026-05-05 02:36 39.95924 -105.47638 22039 ft 355 kts 276°
2026-05-05 02:37 39.96177 -105.50858 22058 ft 359 kts 276°
2026-05-05 02:37 39.96430 -105.54112 21951 ft 362 kts 275°
2026-05-05 02:37 39.96683 -105.57379 21889 ft 361 kts 275°
2026-05-05 02:37 39.96930 -105.60636 21894 ft 362 kts 275°
2026-05-05 02:38 39.97182 -105.63907 21884 ft 363 kts 275°
2026-05-05 02:38 39.97426 -105.67177 21881 ft 360 kts 275°
2026-05-05 02:38 39.97603 -105.70353 21826 ft 342 kts 274°
2026-05-05 02:38 39.97766 -105.73370 21776 ft 325 kts 274°
2026-05-05 02:39 39.97920 -105.76234 21758 ft 309 kts 274°
2026-05-05 02:39 39.98069 -105.78948 21801 ft 291 kts 274°
2026-05-05 02:39 39.98209 -105.81502 21837 ft 275 kts 274°
2026-05-05 02:39 39.98340 -105.83931 21887 ft 263 kts 274°
2026-05-05 02:40 39.98469 -105.86303 21887 ft 263 kts 274°
2026-05-05 02:40 39.98598 -105.88695 21920 ft 266 kts 274°
2026-05-05 02:40 39.98729 -105.91105 21934 ft 268 kts 274°
2026-05-05 02:40 39.98860 -105.93531 21953 ft 269 kts 274°
2026-05-05 02:41 39.98990 -105.95938 21961 ft 270 kts 274°
2026-05-05 02:41 39.99122 -105.98375 21967 ft 270 kts 274°
2026-05-05 02:41 39.99252 -106.00815 21942 ft 269 kts 274°
2026-05-05 02:41 39.99383 -106.03256 21944 ft 270 kts 274°
2026-05-05 02:42 39.99514 -106.05709 21889 ft 271 kts 274°
2026-05-05 02:42 39.99642 -106.08153 21873 ft 269 kts 274°
2026-05-05 02:42 39.99770 -106.10592 21859 ft 269 kts 274°
2026-05-05 02:42 39.99899 -106.13034 21855 ft 272 kts 274°
2026-05-05 02:43 40.00032 -106.15578 21025 ft 292 kts 274°
2026-05-05 02:43 40.00171 -106.18256 20514 ft 292 kts 274°
2026-05-05 02:43 40.00305 -106.20855 20155 ft 284 kts 274°
2026-05-05 02:43 40.00437 -106.23397 19787 ft 278 kts 274°
2026-05-05 02:44 40.00564 -106.25881 19434 ft 272 kts 274°
2026-05-05 02:44 40.00689 -106.28314 19087 ft 266 kts 274°
2026-05-05 02:44 40.00811 -106.30702 18728 ft 262 kts 274°
2026-05-05 02:44 40.00930 -106.33051 18394 ft 257 kts 274°
2026-05-05 02:45 40.01046 -106.35331 18038 ft 254 kts 274°
2026-05-05 02:45 40.01161 -106.37618 17710 ft 251 kts 274°
2026-05-05 02:45 40.01275 -106.39879 17396 ft 250 kts 274°
2026-05-05 02:45 40.01322 -106.42147 17055 ft 251 kts 261°
2026-05-05 02:46 40.00571 -106.44187 16714 ft 257 kts 227°
2026-05-05 02:46 39.99186 -106.45693 16493 ft 261 kts 221°
2026-05-05 02:46 39.97718 -106.47137 16091 ft 266 kts 220°
2026-05-05 02:46 39.96244 -106.48590 15906 ft 260 kts 220°
2026-05-05 02:47 39.94834 -106.49976 15888 ft 251 kts 221°
2026-05-05 02:47 39.93444 -106.51346 15731 ft 252 kts 222°
2026-05-05 02:47 39.91994 -106.52789 14881 ft 273 kts 223°
2026-05-05 02:47 39.90466 -106.54317 14235 ft 284 kts 222°
2026-05-05 02:48 39.88887 -106.55871 13922 ft 279 kts 222°
2026-05-05 02:48 39.87374 -106.57397 13557 ft 278 kts 224°
2026-05-05 02:48 39.85834 -106.58943 13164 ft 279 kts 220°
2026-05-05 02:48 39.84276 -106.60420 12758 ft 273 kts 221°
2026-05-05 02:49 39.82738 -106.61791 12463 ft 266 kts 209°
2026-05-05 02:49 39.80941 -106.62328 12154 ft 264 kts 188°
2026-05-05 02:49 39.79166 -106.62494 11977 ft 249 kts 191°
2026-05-05 02:49 39.77483 -106.62727 11814 ft 239 kts 191°
2026-05-05 02:50 39.75857 -106.62956 11654 ft 230 kts 192°
2026-05-05 02:50 39.74293 -106.63191 11503 ft 222 kts 191°
2026-05-05 02:50 39.72781 -106.63407 11336 ft 214 kts 191°
2026-05-05 02:50 39.71319 -106.63643 11208 ft 210 kts 192°
2026-05-05 02:51 39.69923 -106.63999 11158 ft 199 kts 209°
2026-05-05 02:51 39.68865 -106.65115 10916 ft 199 kts 229°
2026-05-05 02:51 39.67929 -106.66500 10583 ft 208 kts 227°
2026-05-05 02:51 39.66997 -106.67932 10330 ft 204 kts 237°
2026-05-05 02:52 39.66592 -106.69624 10034 ft 190 kts 261°
2026-05-05 02:52 39.66448 -106.71275 9801 ft 183 kts 262°
2026-05-05 02:52 39.66288 -106.72923 9495 ft 185 kts 260°
2026-05-05 02:52 39.66111 -106.74598 9172 ft 190 kts 261°
2026-05-05 02:53 39.65925 -106.76332 8850 ft 197 kts 261°
2026-05-05 02:53 39.65736 -106.78113 8499 ft 202 kts 261°
2026-05-05 02:53 39.65553 -106.79866 8203 ft 185 kts 262°
2026-05-05 02:53 39.65387 -106.81420 7888 ft 164 kts 261°
2026-05-05 02:54 39.65221 -106.82824 7693 ft 156 kts 258°
2026-05-05 02:54 39.65046 -106.84172 7625 ft 149 kts 261°
2026-05-05 02:54 39.64924 -106.85521 7441 ft 151 kts 262°
2026-05-05 02:54 39.64785 -106.86882 7169 ft 153 kts 261°
2026-05-05 02:55 39.64634 -106.88252 6989 ft 154 kts 263°
2026-05-05 02:55 39.64489 -106.89641 6716 ft 155 kts 262°
2026-05-05 02:55 39.64342 -106.90981 6535 ft 139 kts 263°
2026-05-05 02:55 39.64225 -106.92069 6493 ft 97 kts 260°
2026-05-05 02:56 39.64154 -106.92727 6483 ft 46 kts 263°
2026-05-05 02:56 39.64125 -106.92973 6478 ft 23 kts 264°
2026-05-05 02:56 39.64078 -106.93144 6462 ft 12 kts 204°
2026-05-05 02:56 39.64009 -106.93121 6461 ft 10 kts 121°
2026-05-05 02:57 39.64009 -106.93031 6461 ft 12 kts 82°
2026-05-05 02:57 39.64023 -106.92903 6467 ft 17 kts 82°
2026-05-05 02:57 39.64044 -106.92716 6480 ft 24 kts 81°
2026-05-05 02:57 39.64065 -106.92521 6486 ft 20 kts 81°
2026-05-05 02:58 39.64084 -106.92348 6487 ft 19 kts 82°
2026-05-05 02:58 39.64100 -106.92199 6494 ft 13 kts 82°
2026-05-05 02:58 39.64112 -106.92097 6499 ft 12 kts 82°
2026-05-05 02:58 39.64124 -106.91990 6504 ft 12 kts 82°
2026-05-05 02:59 39.64134 -106.91892 6509 ft 11 kts 82°
2026-05-05 02:59 39.64145 -106.91792 6513 ft 11 kts 82°
2026-05-05 02:59 39.64156 -106.91692 6518 ft 11 kts 82°
2026-05-05 02:59 39.64157 -106.91597 6523 ft 9 kts 117°
2026-05-05 03:00 39.64123 -106.91546 6526 ft 6 kts 117°
2026-05-05 03:00 39.64121 -106.91464 6525 ft 11 kts 83°
2026-05-05 03:00 39.64128 -106.91367 6525 ft 10 kts 88°
2026-05-05 03:00 39.64099 -106.91326 6525 ft 6 kts 171°
2026-05-05 03:01 39.64082 -106.91322 6525 ft 0 kts 172°